Regional Weather Roundup
Issued by NWS

Home | Current Version | Previous Version | Graphics & Text | Print | Product List | Glossary On
Versions: 1 2 3 4 5 6 7 8 9 10 11 12 13 14 15 16 17 18 19 20 21 22 23 24 25 26 27
428
ASUS45 KTFX 220810
RWRMT
MONTANA REGIONAL WEATHER ROUNDUP
NATIONAL WEATHER SERVICE GREAT FALLS MT
200 AM MDT FRI MAY 22 2015

NOTE: "FAIR" INDICATES FEW OR NO CLOUDS BELOW 12000 FEET WITH NO
SIGNIFICANT WEATHER AND/OR OBSTRUCTIONS TO VISIBILITY.

MTZ001>007-043-220900-
WEST OF THE DIVIDE

CITY           SKY/WX    TMP DP  RH WIND       PRES   REMARKS
KALISPELL      SUNNY     47  35  63 N5        29.91R
MISSOULA       PTCLDY    47  42  83 NW7       29.93S
BUTTE          CLEAR     39  36  89 E6        30.00S
MULLAN PASS    PTCLDY    50  37  61 S6        29.99S
DEER LODGE       N/A     41  37  87 CALM      30.01S
EUREKA           N/A     48  36  61 CALM      29.91
HAMILTON         N/A     48  43  81 SE2       29.93S
LIBBY            N/A     50  37  62 CALM      29.89S
RONAN            N/A     53  43  69 CALM      29.96S
$$

MTZ008-052>055-220900-
SOUTHWEST MONTANA

CITY           SKY/WX    TMP DP  RH WIND       PRES   REMARKS
BOZEMAN        CLEAR     43  39  86 NE3       29.97R
DILLON         CLOUDY    49  42  77 E5        29.96S
W YELLOWSTONE  CLOUDY    39  37  93 E3        30.04S
THREE FORKS      N/A     44  44 100 CALM      29.96S
TWIN BRIDGES     N/A     51  39  63 N7        29.96S
$$

MTZ009-010-012-014-046-048-049-054-220900-
EAST SLOPES AND CENTRAL MONTANA

CITY           SKY/WX    TMP DP  RH WIND       PRES   REMARKS
CUT BANK       MOCLDY    49  30  48 E8        29.98R
GREAT FALLS    CLEAR     54  42  64 VRB3      29.95S
MALMSTROM AFB  CLEAR     50  40  69 S2        29.96R
HELENA         CLEAR     49  44  83 CALM      29.96R
CONRAD           N/A     44  36  73 CALM      29.99S
$$

MTZ011-013-016-021-045-047-050-051-220900-
NORTH CENTRAL MONTANA

CITY           SKY/WX    TMP DP  RH WIND       PRES   REMARKS
HAVRE          CLEAR     48  32  53 E10       29.99R
LEWISTOWN      CLEAR     46  38  73 E9        29.99S
N BAR RANCH    PTSUNNY  N/A N/A N/A MISG      30.04F
CHINOOK          N/A     43  36  75 CALM      30.01S
FORT BENTON      N/A     54  34  47 NE5       29.96S
$$

MTZ017>020-022>027-061-062-220900-
NORTHEAST MONTANA

CITY           SKY/WX    TMP DP  RH WIND       PRES   REMARKS
GLASGOW        CLEAR     48  33  56 E12       30.06F
JORDAN           N/A     47  30  51 E9        30.03F
SIDNEY         CLEAR     43  36  75 CALM      30.11S
WOLF POINT     CLEAR     46  35  65 NE3       30.09S
MALTA            N/A     53  31  43 E8        30.00F
PLENTYWOOD       N/A     52  34  50 E7        30.12S
POPLAR           N/A     45  37  76 N3        30.10S
$$

MTZ028>42-056>058-220900-
SOUTHCENTRAL AND SOUTHEAST MONTANA

CITY           SKY/WX    TMP DP  RH WIND       PRES   REMARKS
BAKER          PTCLDY    37  30  75 SE5       30.12S
BILLINGS       PTCLDY    49  41  74 NE6       29.96F
LIVINGSTON     CLEAR     41  38  89 SW5       29.98S
MILES CITY     CLEAR     53  30  41 SE8       30.05S
BIG TIMBER       N/A     48  39  71 CALM      29.99S
EKALAKA          N/A     48  30  50 SE8       30.07S
FORSYTH          N/A     50  36  57 E7        30.02S
LAUREL           N/A     47  35  63 N2        29.95S
ROUNDUP          N/A     47  35  63 CALM      29.91F
$$

REGIONAL REPORTS...DAKOTAS

CITY           SKY/WX    TMP DP  RH WIND       PRES   REMARKS
WILLISTON      CLEAR     49  36  61 CALM      30.11F
MINOT          CLEAR     53  35  50 S9        30.13S
DICKINSON      CLEAR     44  32  62 S8        30.11F
BEACH          PTSUNNY   39  36  87 SE6       30.12F
CROSBY         FAIR      50  37  62 S5        30.13R
WATFORD CITY   FAIR      41  32  70 CALM      30.11S
BISMARCK       CLEAR     47  42  83 NE6       30.14S
GRAND FORKS    CLEAR     41  37  86 CALM      30.14R
FARGO          CLEAR     45  40  82 CALM      30.15R
BUFFALO SD       N/A     44  31  60 SE9       30.06S
RAPID CITY     CLOUDY    48  44  86 E5        30.10F
$$

REGIONAL REPORTS...WYOMING/IDAHO/WASHINGTON

CITY           SKY/WX    TMP DP  RH WIND       PRES   REMARKS
GILLETTE       PTCLDY    47  42  83 SE9       30.03F
SHERIDAN       MOCLDY    49  42  77 SE13      29.98F
BUFFALO WY     MOCLDY    46  42  86 S10       30.02F
CODY           CLOUDY    48  41  76 SW10      29.98F
YELLOWSTONE LA   N/A     34  31  88 CALM      30.08F
IDAHO FALLS    CLOUDY    50  46  86 CALM      29.95S
SALMON         CLOUDY    52  45  76 SE3       29.93S
BOISE          CLOUDY    55  48  77 S3        29.86S
SPOKANE        MOCLDY    62  52  69 S8        29.84F
$$

REGIONAL REPORTS...ALBERTA

CITY           SKY/WX    TMP DP  RH WIND       PRES   REMARKS
EDMONTON       CLEAR     45  32  61 S2        29.95S
CALGARY        CLEAR     45  30  57 N2        29.98R
LETHBRIDGE     CLEAR     43  32  65 S8        29.96S
MEDICINE HAT   CLEAR     50  28  43 SE8       29.99F
$$

REGIONAL REPORTS...SASKATCHEWAN

CITY           SKY/WX    TMP DP  RH WIND       PRES   REMARKS
SWIFT CURRENT  CLEAR     48  30  49 S12       30.07F
REGINA         CLEAR     54  32  43 SE6       30.11F
SASKATOON      CLEAR     52  34  50 S8        30.07R
$$



USA.gov is the U.S. government's official web portal to all federal, state and local government web resources and services.